This demonstration page uses our WeatherBlox Daily Observations layout. Learn more.

Left ArrowRight Arrow

Hourly Observations for May 23, 2019

Temp ( °F °C ) Dew Point ( °F °C ) Humidity (%) Winds ( mph kmh ) Pressure ( in mb ) Visibility ( mi km ) Precip ( " mm )
12:15 am 00:15 Clear 66 19 66 19 100 100 S 6 9 30.01 1016 10 16.0934 N/A
12:35 am 00:35 Clear 66 19 66 19 100 100 S 5 7 30.01 1016 10 16.0934 N/A
12:55 am 00:55 Clear 66 19 66 19 100 100 S 5 7 30.01 1016 10 16.0934 N/A
1:15 am 01:15 Clear 66 19 66 19 100 100 S 6 9 30.01 1016 10 16.0934 N/A
1:35 am 01:35 Clear 66 19 66 19 100 100 S 5 7 30 1016 7 11.26538 N/A
1:55 am 01:55 Clear 66 19 66 19 100 100 S 7 11 29.99 1016 7 11.26538 N/A
2:15 am 02:15 Clear 66 19 66 19 100 100 S 7 11 29.98 1015 7 11.26538 N/A
2:36 am 02:36 Clear 68 20 68 20 100 100 SSW 8 13 29.99 1016 7 11.26538 N/A
2:55 am 02:55 Clear 68 20 68 20 100 100 S 9 15 29.98 1015 7 11.26538 N/A
3:15 am 03:15 Clear 68 20 68 20 100 100 S 7 11 29.99 1016 7 11.26538 N/A
3:35 am 03:35 Partly Cloudy 68 20 68 20 100 100 S 7 11 29.99 1016 7 11.26538 N/A
3:55 am 03:55 Partly Cloudy 68 20 68 20 100 100 S 9 15 29.98 1015 7 11.26538 N/A
4:15 am 04:15 Partly Cloudy 68 20 68 20 100 100 S 10 17 29.99 1016 10 16.0934 N/A
4:35 am 04:35 Partly Cloudy 70 21 70 21 100 100 SSW 10 17 29.99 1015 10 16.0934 N/A
4:55 am 04:55 Clear 70 21 70 21 100 100 SSW 12 19 30 1016 10 16.0934 N/A
5:15 am 05:15 Clear 70 21 70 21 100 100 SSW 9 15 29.99 1015 10 16.0934 N/A
5:35 am 05:35 Partly Cloudy 70 21 70 21 100 100 SSW 7 11 30 1016 10 16.0934 N/A
5:55 am 05:55 Cloudy 64 18 64 18 100 100 W 24 39 30.07 1018 2 3.21868 N/A
6:15 am 06:15 Cloudy 64 18 64 18 100 100 WNW 12 19 30.06 1018 5 8.0467 N/A
6:35 am 06:35 Cloudy 64 18 64 18 100 100 WNW 10 17 30.05 1018 7 11.26538 N/A
6:55 am 06:55 Cloudy 64 18 64 18 100 100 W 9 15 30.08 1019 10 16.0934 N/A
7:15 am 07:15 Cloudy 64 18 64 18 100 100 SW 12 19 30.09 1019 4 6.43736 N/A
7:35 am 07:35 Cloudy 64 18 64 18 100 100 WSW 12 19 30.09 1019 4 6.43736 N/A
7:55 am 07:55 Cloudy 64 18 64 18 100 100 WSW 10 17 30.09 1019 5 8.0467 N/A
8:15 am 08:15 Cloudy 64 18 64 18 100 100 WSW 10 17 30.08 1019 7 11.26538 N/A
8:35 am 08:35 Mostly Cloudy 64 18 64 18 100 100 SSW 13 20 30.06 1018 10 16.0934 N/A
8:55 am 08:55 Mostly Cloudy 64 18 64 18 100 100 SSW 10 17 30.06 1018 10 16.0934 N/A
9:17 am 09:17 Mostly Cloudy 66 19 66 19 100 100 SSW 9 15 30.06 1018 10 16.0934 N/A
9:35 am 09:35 Mostly Cloudy 66 19 66 19 100 100 S 9 15 30.06 1018 10 16.0934 N/A
9:55 am 09:55 Mostly Cloudy 68 20 68 20 100 100 SW 7 11 30.06 1018 10 16.0934 N/A
10:15 am 10:15 Partly Cloudy 70 21 68 20 94 94 SSW 7 11 30.05 1017 10 16.0934 N/A
10:35 am 10:35 Sunny 72 22 70 21 94 94 SW 13 20 30.05 1018 10 16.0934 N/A
10:55 am 10:55 Sunny 73 23 70 21 89 89 SW 10 17 30.05 1018 10 16.0934 N/A
11:15 am 11:15 Partly Cloudy 73 23 70 21 89 89 WSW 12 19 30.06 1018 10 16.0934 N/A
11:35 am 11:35 Mostly Cloudy 73 23 70 21 89 89 SW 13 20 30.06 1018 10 16.0934 N/A
11:55 am 11:55 Cloudy 73 23 72 22 94 94 SW 15 24 30.06 1018 10 16.0934 N/A
12:15 pm 12:15 Mostly Cloudy 75 24 73 23 94 94 WSW 17 28 30.05 1017 10 16.0934 N/A
12:36 pm 12:36 Partly Cloudy 75 24 73 23 94 94 SW 15 24 30.05 1017 10 16.0934 N/A
12:55 pm 12:55 Partly Cloudy 75 24 73 23 94 94 SW 17 28 30.05 1017 10 16.0934 N/A
1:15 pm 13:15 Mostly Cloudy 77 25 75 24 94 94 WSW 12 19 30.04 1017 10 16.0934 N/A
1:35 pm 13:35 Cloudy 75 24 73 23 94 94 SW 13 20 30.05 1017 10 16.0934 N/A
1:55 pm 13:55 Cloudy 77 25 75 24 94 94 SW 13 20 30.05 1018 10 16.0934 N/A
2:16 pm 14:16 Mostly Cloudy 77 25 75 24 94 94 WSW 16 26 30.04 1017 10 16.0934 N/A
2:34 pm 14:34 Mostly Cloudy 77 25 75 24 94 94 WSW 13 20 30.04 1017 10 16.0934 N/A
3:05 pm 15:05 Mostly Cloudy 79 26 75 24 89 89 SW 15 24 30.03 1017 10 16.0934 N/A
3:15 pm 15:15 Mostly Cloudy 79 26 75 24 89 89 WSW 15 24 30.02 1017 10 16.0934 N/A
3:35 pm 15:35 Mostly Cloudy 79 26 75 24 89 89 WSW 16 26 30.02 1017 10 16.0934 N/A
3:57 pm 15:57 Mostly Cloudy 81 27 75 24 84 84 WSW 15 24 30.01 1016 10 16.0934 N/A
4:15 pm 16:15 Mostly Cloudy 81 27 75 24 84 84 W 12 19 30.01 1016 10 16.0934 N/A
4:35 pm 16:35 Mostly Cloudy 81 27 75 24 84 84 W 17 28 30 1016 10 16.0934 N/A
4:55 pm 16:55 Mostly Cloudy 81 27 77 25 89 89 W 13 20 30.01 1016 10 16.0934 N/A
5:15 pm 17:15 Partly Cloudy 82 28 75 24 79 79 W 15 24 30 1016 10 16.0934 N/A
5:35 pm 17:35 Mostly Cloudy 82 28 75 24 79 79 W 17 28 29.99 1016 10 16.0934 N/A
5:55 pm 17:55 Mostly Cloudy 81 27 73 23 79 79 WNW 18 30 30.01 1016 10 16.0934 N/A
6:15 pm 18:15 Mostly Cloudy 81 27 75 24 84 84 WNW 14 22 30.01 1016 10 16.0934 N/A
6:35 pm 18:35 Cloudy 79 26 73 23 84 84 WNW 13 20 30.02 1017 10 16.0934 N/A
6:55 pm 18:55 Partly Cloudy 81 27 73 23 79 79 W 12 19 30.01 1016 10 16.0934 N/A
7:15 pm 19:15 Sunny 81 27 73 23 79 79 WNW 15 24 30.02 1016 10 16.0934 N/A
7:35 pm 19:35 Partly Cloudy 79 26 73 23 84 84 W 17 28 30.02 1017 10 16.0934 N/A
7:55 pm 19:55 Partly Cloudy 79 26 73 23 84 84 W 14 22 30.02 1017 10 16.0934 N/A
8:15 pm 20:15 Sunny 77 25 73 23 89 89 W 9 15 30.02 1017 10 16.0934 N/A
8:35 pm 20:35 Sunny 77 25 73 23 89 89 WNW 8 13 30.03 1017 10 16.0934 N/A
8:55 pm 20:55 Sunny 75 24 73 23 94 94 WNW 8 13 30.04 1017 10 16.0934 N/A
9:15 pm 21:15 Clear 75 24 72 22 89 89 WNW 8 13 30.04 1017 10 16.0934 N/A
9:35 pm 21:35 Clear 73 23 72 22 94 94 WNW 6 9 30.05 1018 10 16.0934 N/A
9:55 pm 21:55 Clear 72 22 72 22 100 100 WNW 6 9 30.06 1018 10 16.0934 N/A
10:15 pm 22:15 Clear 72 22 72 22 100 100 NW 3 6 30.06 1018 10 16.0934 N/A
10:35 pm 22:35 Clear 70 21 70 21 100 100 NW 5 7 30.08 1018 10 16.0934 N/A
10:55 pm 22:55 Clear 70 21 70 21 100 100 NNW 3 6 30.08 1018 10 16.0934 N/A
11:15 pm 23:15 Clear 68 20 68 20 100 100 NNW 3 6 30.09 1019 10 16.0934 N/A
11:35 pm 23:35 Clear 66 19 66 19 100 100 NW 5 7 30.09 1019 10 16.0934 N/A
11:55 pm 23:55 Clear 68 20 68 20 100 100 NNW 3 6 30.09 1019 10 16.0934 N/A

Powered by AerisWeather